Time,TemperatureF,DewpointF,PressureIn,WindDirection,WindDirectionDegrees,WindSpeedMPH,WindSpeedGustMPH,Humidity,HourlyPrecipIn,Conditions,Clouds,dailyrainin,SoftwareType,DateUTC
2013-04-17 00:00:00,47.0,33.0,30.39,West,274,0.0,1.0,58,0.00,,,0.00,weatherlink.com 1.10,2013-04-17 07:00:00,
2013-04-17 00:15:00,47.0,33.0,30.38,West,274,1.0,2.0,59,0.00,,,0.00,weatherlink.com 1.10,2013-04-17 07:15:00,
2013-04-17 00:30:00,47.1,36.0,30.39,West,274,2.0,3.0,65,0.00,,,0.00,weatherlink.com 1.10,2013-04-17 07:30:00,
2013-04-17 00:45:00,46.7,34.0,30.39,North,357,0.0,4.0,61,0.00,,,0.00,weatherlink.com 1.10,2013-04-17 07:45:00,
2013-04-17 01:00:00,46.4,34.0,30.38,North,357,0.0,3.0,62,0.00,,,0.00,weatherlink.com 1.10,2013-04-17 08:00:00,
2013-04-17 01:15:00,46.3,35.0,30.38,North,357,0.0,3.0,65,0.00,,,0.00,weatherlink.com 1.10,2013-04-17 08:15:00,
2013-04-17 01:30:00,46.4,36.0,30.39,North,357,0.0,2.0,66,0.00,,,0.00,weatherlink.com 1.10,2013-04-17 08:30:00,
2013-04-17 01:45:00,46.6,36.0,30.39,North,357,1.0,3.0,68,0.00,,,0.00,weatherlink.com 1.10,2013-04-17 08:45:00,
2013-04-17 02:00:00,46.4,36.0,30.38,NE,40,2.0,3.0,66,0.00,,,0.00,weatherlink.com 1.10,2013-04-17 09:00:00,
2013-04-17 02:15:00,45.9,36.0,30.38,ENE,76,6.0,7.0,69,0.00,,,0.00,weatherlink.com 1.10,2013-04-17 09:15:00,
2013-04-17 02:30:00,45.6,37.0,30.38,ENE,77,6.0,8.0,71,0.00,,,0.00,weatherlink.com 1.10,2013-04-17 09:30:00,
2013-04-17 02:45:00,45.2,37.0,30.38,East,81,6.0,8.0,73,0.00,,,0.00,weatherlink.com 1.10,2013-04-17 09:45:00,
2013-04-17 03:00:00,44.9,38.0,30.38,ENE,77,6.0,8.0,76,0.00,,,0.00,weatherlink.com 1.10,2013-04-17 10:00:00,
2013-04-17 03:15:00,44.6,38.0,30.38,East,79,5.0,8.0,78,0.00,,,0.00,weatherlink.com 1.10,2013-04-17 10:15:00,
2013-04-17 03:30:00,44.3,39.0,30.38,ENE,75,3.0,8.0,80,0.00,,,0.00,weatherlink.com 1.10,2013-04-17 10:30:00,
2013-04-17 03:45:00,44.2,39.0,30.38,East,86,2.0,7.0,82,0.00,,,0.00,weatherlink.com 1.10,2013-04-17 10:45:00,
2013-04-17 04:00:00,44.0,40.0,30.38,East,79,6.0,7.0,84,0.00,,,0.00,weatherlink.com 1.10,2013-04-17 11:00:00,
2013-04-17 04:15:00,43.7,40.0,30.38,East,84,1.0,6.0,86,0.00,,,0.00,weatherlink.com 1.10,2013-04-17 11:15:00,
2013-04-17 04:30:00,43.4,40.0,30.38,NE,40,0.0,3.0,87,0.00,,,0.00,weatherlink.com 1.10,2013-04-17 11:30:00,
2013-04-17 04:45:00,43.4,40.0,30.39,SSW,202,0.0,2.0,88,0.00,,,0.00,weatherlink.com 1.10,2013-04-17 11:45:00,
2013-04-17 05:00:00,43.4,40.0,30.39,ENE,69,2.0,5.0,88,0.00,,,0.00,weatherlink.com 1.10,2013-04-17 12:00:00,
2013-04-17 05:15:00,43.3,40.0,30.39,North,11,0.0,3.0,88,0.00,,,0.00,weatherlink.com 1.10,2013-04-17 12:15:00,
2013-04-17 05:30:00,43.3,40.0,30.39,ESE,113,1.0,4.0,88,0.00,,,0.00,weatherlink.com 1.10,2013-04-17 12:30:00,
2013-04-17 05:45:00,43.5,40.0,30.39,SE,132,0.0,4.0,87,0.00,,,0.00,weatherlink.com 1.10,2013-04-17 12:45:00,
2013-04-17 06:00:00,43.6,40.0,30.39,NE,50,1.0,3.0,87,0.00,,,0.00,weatherlink.com 1.10,2013-04-17 13:00:00,
2013-04-17 06:15:00,43.7,40.0,30.39,NNW,330,1.0,5.0,87,0.00,,,0.00,weatherlink.com 1.10,2013-04-17 13:15:00,
2013-04-17 06:30:00,43.7,40.0,30.39,West,271,0.0,5.0,86,0.00,,,0.00,weatherlink.com 1.10,2013-04-17 13:30:00,
2013-04-17 06:45:00,43.8,40.0,30.39,NNE,13,0.0,2.0,86,0.00,,,0.00,weatherlink.com 1.10,2013-04-17 13:45:00,
2013-04-17 07:00:00,44.0,40.0,30.40,North,360,0.0,4.0,86,0.00,,,0.00,weatherlink.com 1.10,2013-04-17 14:00:00,
2013-04-17 07:15:00,44.2,40.0,30.40,NE,44,0.0,3.0,86,0.00,,,0.00,weatherlink.com 1.10,2013-04-17 14:15:00,
2013-04-17 07:30:00,44.2,41.0,30.40,NE,55,3.0,5.0,87,0.00,,,0.00,weatherlink.com 1.10,2013-04-17 14:30:00,
2013-04-17 07:45:00,44.3,41.0,30.40,NNE,33,2.0,5.0,87,0.00,,,0.00,weatherlink.com 1.10,2013-04-17 14:45:00,
2013-04-17 08:00:00,44.5,41.0,30.41,South,181,1.0,6.0,87,0.00,,,0.00,weatherlink.com 1.10,2013-04-17 15:00:00,
2013-04-17 08:15:00,44.9,41.0,30.41,ESE,103,1.0,4.0,87,0.00,,,0.00,weatherlink.com 1.10,2013-04-17 15:15:00,
2013-04-17 08:31:00,45.2,42.0,30.42,SSE,150,2.0,4.0,87,0.00,,,0.00,weatherlink.com 1.10,2013-04-17 15:31:00,
2013-04-17 08:46:00,46.0,42.0,30.42,WNW,291,0.0,3.0,86,0.00,,,0.00,weatherlink.com 1.10,2013-04-17 15:46:00,
2013-04-17 09:01:00,46.7,42.0,30.42,ESE,118,1.0,5.0,84,0.00,,,0.00,weatherlink.com 1.10,2013-04-17 16:01:00,
2013-04-17 09:16:00,47.4,43.0,30.42,SSE,162,3.0,6.0,83,0.00,,,0.00,weatherlink.com 1.10,2013-04-17 16:16:00,
2013-04-17 09:31:00,48.3,43.0,30.41,NNE,17,5.0,5.0,81,0.00,,,0.00,weatherlink.com 1.10,2013-04-17 16:31:00,
2013-04-17 09:46:00,48.8,43.0,30.41,SE,144,1.0,7.0,80,0.00,,,0.00,weatherlink.com 1.10,2013-04-17 16:46:00,
2013-04-17 10:01:00,49.4,44.0,30.42,NE,56,2.0,5.0,80,0.00,,,0.00,weatherlink.com 1.10,2013-04-17 17:01:00,
2013-04-17 10:16:00,49.7,43.0,30.42,ENE,74,0.0,7.0,78,0.00,,,0.00,weatherlink.com 1.10,2013-04-17 17:16:00,
2013-04-17 10:31:00,50.1,44.0,30.42,SW,224,1.0,5.0,79,0.00,,,0.00,weatherlink.com 1.10,2013-04-17 17:31:00,
2013-04-17 10:46:00,50.6,44.0,30.42,North,359,3.0,9.0,79,0.00,,,0.00,weatherlink.com 1.10,2013-04-17 17:46:00,
2013-04-17 11:31:00,51.7,44.0,30.43,NE,46,0.0,5.0,76,0.00,,,0.00,weatherlink.com 1.10,2013-04-17 18:31:00,
2013-04-17 11:46:00,51.6,45.0,30.43,WNW,296,1.0,7.0,77,0.00,,,0.00,weatherlink.com 1.10,2013-04-17 18:46:00,
2013-04-17 12:01:00,52.0,45.0,30.43,NNE,23,0.0,6.0,76,0.00,,,0.00,weatherlink.com 1.10,2013-04-17 19:01:00,
2013-04-17 12:31:00,52.0,45.0,30.42,East,88,3.0,6.0,78,0.00,,,0.00,weatherlink.com 1.10,2013-04-17 19:31:00,
2013-04-17 12:46:00,53.3,45.0,30.42,NNE,17,0.0,8.0,74,0.00,,,0.00,weatherlink.com 1.10,2013-04-17 19:46:00,
2013-04-17 13:01:00,54.5,45.0,30.42,ENE,61,4.0,10.0,71,0.00,,,0.00,weatherlink.com 1.10,2013-04-17 20:01:00,
2013-04-17 13:16:00,55.3,45.0,30.41,NNE,17,0.0,4.0,69,0.00,,,0.00,weatherlink.com 1.10,2013-04-17 20:16:00,
2013-04-17 13:31:00,55.5,45.0,30.41,SSW,213,2.0,9.0,68,0.00,,,0.00,weatherlink.com 1.10,2013-04-17 20:31:00,
2013-04-17 13:46:00,55.1,45.0,30.41,SE,142,5.0,6.0,69,0.00,,,0.00,weatherlink.com 1.10,2013-04-17 20:46:00,
2013-04-17 14:01:00,54.7,45.0,30.41,NNW,330,0.0,6.0,71,0.00,,,0.00,weatherlink.com 1.10,2013-04-17 21:01:00,
2013-04-17 14:16:00,55.3,46.0,30.40,NNW,345,1.0,5.0,70,0.00,,,0.00,weatherlink.com 1.10,2013-04-17 21:16:00,
2013-04-17 14:31:00,54.8,46.0,30.41,South,188,0.0,6.0,71,0.00,,,0.00,weatherlink.com 1.10,2013-04-17 21:31:00,
2013-04-17 14:46:00,54.7,45.0,30.40,ESE,102,1.0,6.0,71,0.00,,,0.00,weatherlink.com 1.10,2013-04-17 21:46:00,
2013-04-17 15:01:00,55.8,45.0,30.40,NE,46,3.0,8.0,67,0.00,,,0.00,weatherlink.com 1.10,2013-04-17 22:01:00,
2013-04-17 15:16:00,55.9,44.0,30.40,South,178,4.0,5.0,64,0.00,,,0.00,weatherlink.com 1.10,2013-04-17 22:16:00,
2013-04-17 15:31:00,56.3,43.0,30.40,West,264,1.0,5.0,62,0.00,,,0.00,weatherlink.com 1.10,2013-04-17 22:31:00,
2013-04-17 15:46:00,56.6,42.0,30.39,SSE,165,0.0,6.0,58,0.00,,,0.00,weatherlink.com 1.10,2013-04-17 22:46:00,
2013-04-17 16:01:00,56.4,41.0,30.39,ENE,60,1.0,7.0,56,0.00,,,0.00,weatherlink.com 1.10,2013-04-17 23:01:00,
2013-04-17 16:16:00,55.8,40.0,30.39,ENE,65,1.0,7.0,56,0.00,,,0.00,weatherlink.com 1.10,2013-04-17 23:16:00,
2013-04-17 16:31:00,55.3,39.0,30.39,SW,223,0.0,4.0,55,0.00,,,0.00,weatherlink.com 1.10,2013-04-17 23:31:00,
2013-04-17 16:46:00,55.3,39.0,30.39,WNW,298,2.0,5.0,55,0.00,,,0.00,weatherlink.com 1.10,2013-04-17 23:46:00,
2013-04-17 17:01:00,55.4,39.0,30.39,WSW,243,0.0,7.0,54,0.00,,,0.00,weatherlink.com 1.10,2013-04-18 00:01:00,
2013-04-17 17:31:00,54.9,40.0,30.39,NNW,336,2.0,4.0,57,0.00,,,0.00,weatherlink.com 1.10,2013-04-18 00:31:00,
2013-04-17 17:46:00,54.3,39.0,30.39,SSW,194,0.0,4.0,56,0.00,,,0.00,weatherlink.com 1.10,2013-04-18 00:46:00,
2013-04-17 18:01:00,53.8,39.0,30.39,SW,225,0.0,6.0,57,0.00,,,0.00,weatherlink.com 1.10,2013-04-18 01:01:00,
2013-04-17 18:16:00,53.5,39.0,30.39,WSW,247,0.0,5.0,58,0.00,,,0.00,weatherlink.com 1.10,2013-04-18 01:16:00,
2013-04-17 18:31:00,53.2,38.0,30.40,West,281,2.0,5.0,56,0.00,,,0.00,weatherlink.com 1.10,2013-04-18 01:31:00,
2013-04-17 18:46:00,51.7,39.0,30.40,West,279,4.0,5.0,63,0.00,,,0.00,weatherlink.com 1.10,2013-04-18 01:46:00,
2013-04-17 19:01:00,50.7,41.0,30.40,West,269,2.0,4.0,69,0.00,,,0.00,weatherlink.com 1.10,2013-04-18 02:01:00,
2013-04-17 19:16:00,50.3,40.0,30.40,West,275,2.0,5.0,69,0.00,,,0.00,weatherlink.com 1.10,2013-04-18 02:16:00,
2013-04-17 19:31:00,49.6,41.0,30.40,West,279,3.0,5.0,72,0.00,,,0.00,weatherlink.com 1.10,2013-04-18 02:31:00,
2013-04-17 19:46:00,48.8,42.0,30.41,WNW,285,2.0,4.0,76,0.00,,,0.00,weatherlink.com 1.10,2013-04-18 02:46:00,
2013-04-17 20:01:00,48.3,41.0,30.41,West,275,2.0,3.0,77,0.00,,,0.00,weatherlink.com 1.10,2013-04-18 03:01:00,
2013-04-17 20:16:00,47.9,42.0,30.41,West,275,2.0,3.0,79,0.00,,,0.00,weatherlink.com 1.10,2013-04-18 03:16:00,
2013-04-17 20:31:00,47.7,42.0,30.41,West,275,2.0,3.0,79,0.00,,,0.00,weatherlink.com 1.10,2013-04-18 03:31:00,
2013-04-17 20:46:00,47.6,41.0,30.41,West,275,2.0,2.0,78,0.00,,,0.00,weatherlink.com 1.10,2013-04-18 03:46:00,
2013-04-17 21:01:00,47.6,41.0,30.41,West,275,0.0,2.0,79,0.00,,,0.00,weatherlink.com 1.10,2013-04-18 04:01:00,
2013-04-17 21:17:00,47.5,41.0,30.42,West,275,0.0,2.0,79,0.00,,,0.00,weatherlink.com 1.10,2013-04-18 04:17:00,
2013-04-17 21:32:00,47.4,42.0,30.42,WSW,246,1.0,2.0,80,0.00,,,0.00,weatherlink.com 1.10,2013-04-18 04:32:00,
2013-04-17 21:47:00,47.4,41.0,30.42,West,277,2.0,3.0,79,0.00,,,0.00,weatherlink.com 1.10,2013-04-18 04:47:00,
2013-04-17 22:02:00,47.3,41.0,30.41,West,271,2.0,4.0,79,0.00,,,0.00,weatherlink.com 1.10,2013-04-18 05:02:00,
2013-04-17 22:17:00,47.3,41.0,30.41,West,272,2.0,3.0,78,0.00,,,0.00,weatherlink.com 1.10,2013-04-18 05:17:00,
2013-04-17 22:32:00,47.1,42.0,30.41,West,272,1.0,3.0,81,0.00,,,0.00,weatherlink.com 1.10,2013-04-18 05:32:00,
2013-04-17 22:47:00,46.9,41.0,30.41,West,272,0.0,2.0,81,0.00,,,0.00,weatherlink.com 1.10,2013-04-18 05:47:00,
2013-04-17 23:02:00,46.8,41.0,30.41,West,271,0.0,1.0,81,0.00,,,0.00,weatherlink.com 1.10,2013-04-18 06:02:00,
2013-04-17 23:17:00,46.7,41.0,30.41,SE,137,0.0,1.0,81,0.00,,,0.00,weatherlink.com 1.10,2013-04-18 06:17:00,
2013-04-17 23:32:00,46.5,41.0,30.41,SE,137,0.0,1.0,82,0.00,,,0.00,weatherlink.com 1.10,2013-04-18 06:32:00,
2013-04-17 23:47:00,46.1,40.0,30.41,ESE,120,2.0,3.0,80,0.00,,,0.00,weatherlink.com 1.10,2013-04-18 06:47:00,